This is the latest recevied weather packets stored in our database for station/object LA9TLA-1. If no packets are shown the sender has not sent any weather packets the latest 10 day(s).
| Time | Temp. | Humidity | Pressure | Rain* | Wind** | Luminosity | Snow |
|---|---|---|---|---|---|---|---|
| 1777348667 | 3.33° C | 99% | 1040.1 hPa | 0 mm | - | - | - |
| 1777345067 | 3.33° C | 99% | 1040 hPa | 0 mm | - | - | - |
| 1777343268 | 3.89° C | 99% | 1040.1 hPa | 0 mm | - | - | - |
| 1777341466 | 3.33° C | 99% | 1040 hPa | 0 mm | - | - | - |
| 1777337869 | 3.89° C | 99% | 1040 hPa | 0 mm | - | - | - |
| 1777336068 | 3.89° C | 99% | 1039.5 hPa | 0 mm | - | - | - |
| 1777334268 | 3.89° C | 99% | 1039.5 hPa | 0 mm | - | - | - |
| 1777332467 | 3.89° C | 99% | 1039.5 hPa | 0 mm | - | - | - |
| 1777330667 | 5° C | 99% | 1039.5 hPa | 0 mm | - | - | - |
| 1777328868 | 5.56° C | 99% | 1039.4 hPa | 0 mm | - | - | - |
| 1777327068 | 6.11° C | 99% | 1039 hPa | 0 mm | - | - | - |
| 1777325270 | 6.11° C | 99% | 1039 hPa | 0 mm | - | - | - |
| 1777323468 | 5.56° C | 99% | 1039 hPa | 0 mm | - | - | - |
| 1777321669 | 6.67° C | 80% | 1039 hPa | 0 mm | - | - | - |
| 1777319869 | 6.67° C | 43% | 1038.5 hPa | 0 mm | - | - | - |
| 1777318067 | 7.22° C | 10% | 1038.6 hPa | 0 mm | - | - | - |
| 1777316267 | 8.89° C | 10% | 1038.5 hPa | 0 mm | - | - | - |
| 1777312668 | 10° C | 10% | 1038.3 hPa | 0 mm | - | - | - |
| 1777310868 | 10° C | 10% | 1038.5 hPa | 0 mm | - | - | - |
| 1777309067 | 10.56° C | 10% | 1038.4 hPa | 0 mm | - | - | - |
| 1777307266 | 10.56° C | 10% | 1038.4 hPa | 0 mm | - | - | - |
| 1777305468 | 10° C | 10% | 1038.5 hPa | 0 mm | - | - | - |
| 1777303667 | 10° C | 10% | 1038.5 hPa | 0 mm | - | - | - |
| 1777301867 | 10° C | 10% | 1038.4 hPa | 0 mm | - | - | - |
| 1777300070 | 10.56° C | 10% | 1038.3 hPa | 0 mm | - | - | - |
* Rain latest hour (hover to see other rain measurements)
** Current wind speed in m/s (hover to see current wind gust speed)